When you browse on this site, cookies collect data to enhance your experience and personalize the content and advertising you see.
Visit our Privacy Policy to learn more. By continuing to use the site, you agree to this use of cookies and data.
  • In Hungary
  • List of Countries
  • For 7 days
  • Water Temperature
  • Satellite Maps
  • Weather Map
  • News
  • Weather Widgets
  • user-avatar
    Login

    Hourly Weather Lama-Kara

    Today, 21 April, Sunday

    Time Temperature Precipitation Wind Pressure Humidity
    00:00 +33°C° 0 mm 4 mps 731 mmHg 51%
    01:00 +31°C° 0 mm 3 mps 730 mmHg 56%
    02:00 +30°C° 0 mm 3 mps 730 mmHg 61%
    03:00 +30°C° 0 mm 3 mps 730 mmHg 66%
    04:00 +29°C° 0 mm 3 mps 730 mmHg 68%
    05:00 +29°C° 0 mm 3 mps 730 mmHg 70%
    06:00 +29°C° 0 mm 3 mps 731 mmHg 71%
    07:00 +30°C° 0 mm 3 mps 731 mmHg 67%
    08:00 +33°C° 0 mm 3 mps 731 mmHg 62%
    09:00 +34°C° 0 mm 3 mps 732 mmHg 58%
    10:00 +36°C° 0 mm 3 mps 731 mmHg 51%
    11:00 +38°C° 0 mm 2 mps 731 mmHg 44%
    12:00 +40°C° 0 mm 2 mps 731 mmHg 37%
    13:00 +40°C° 0 mm 1 mps 730 mmHg 35%
    14:00 +40°C° 0 mm 1 mps 729 mmHg 33%
    15:00 +40°C° 0 mm 1 mps 728 mmHg 31%
    16:00 +39°C° 0 mm 1 mps 728 mmHg 33%
    17:00 +39°C° 0 mm 1 mps 728 mmHg 34%
    18:00 +37°C° 0 mm 1 mps 728 mmHg 35%
    19:00 +36°C° 0 mm 1 mps 729 mmHg 37%
    20:00 +36°C° 0 mm 1 mps 729 mmHg 39%
    21:00 +35°C° 0 mm 1 mps 730 mmHg 41%
    22:00 +35°C° 0 mm 1 mps 730 mmHg 43%
    23:00 +34°C° 0 mm 1 mps 729 mmHg 44%

    Tomorrow, 22 April, Monday

    Time Temperature Precipitation Wind Pressure Humidity
    00:00 +34°C° 0 mm 1 mps 729 mmHg 46%
    01:00 +33°C° 0 mm 1 mps 729 mmHg 48%
    02:00 +32°C° 0 mm 2 mps 729 mmHg 51%
    03:00 +32°C° 0 mm 2 mps 728 mmHg 54%
    04:00 +31°C° 0 mm 2 mps 729 mmHg 56%
    05:00 +31°C° 0 mm 3 mps 729 mmHg 59%
    06:00 +30°C° 0 mm 3 mps 729 mmHg 62%
    07:00 +31°C° 0 mm 3 mps 730 mmHg 59%
    08:00 +33°C° 0 mm 3 mps 731 mmHg 57%
    09:00 +35°C° 0 mm 3 mps 731 mmHg 54%
    10:00 +36°C° 0.7 mm 3 mps 731 mmHg 50%
    11:00 +37°C° 0.7 mm 3 mps 731 mmHg 46%
    12:00 +38°C° 0.7 mm 4 mps 731 mmHg 42%
    13:00 +38°C° 0 mm 4 mps 730 mmHg 42%
    14:00 +38°C° 0 mm 4 mps 729 mmHg 42%
    15:00 +38°C° 0 mm 4 mps 728 mmHg 41%
    16:00 +38°C° 0 mm 3 mps 728 mmHg 43%
    17:00 +37°C° 0 mm 3 mps 728 mmHg 45%
    18:00 +36°C° 0 mm 2 mps 728 mmHg 47%
    19:00 +35°C° 0 mm 2 mps 729 mmHg 49%
    20:00 +35°C° 0 mm 2 mps 729 mmHg 52%
    21:00 +34°C° 0 mm 2 mps 730 mmHg 54%
    22:00 +34°C° 0 mm 2 mps 730 mmHg 55%
    23:00 +32°C° 0 mm 2 mps 730 mmHg 56%

    Day after tomorrow, 23 April, Tuesday

    Time Temperature Precipitation Wind Pressure Humidity
    00:00 +32°C° 0 mm 1 mps 730 mmHg 57%
    01:00 +31°C° 0.6 mm 2 mps 730 mmHg 63%
    02:00 +30°C° 0.6 mm 2 mps 729 mmHg 70%
    03:00 +29°C° 0.6 mm 2 mps 729 mmHg 76%
    04:00 +28°C° 0 mm 2 mps 729 mmHg 77%
    05:00 +28°C° 0 mm 3 mps 730 mmHg 78%
    06:00 +28°C° 0 mm 3 mps 730 mmHg 79%
    07:00 +30°C° 0 mm 3 mps 730 mmHg 71%
    08:00 +33°C° 0 mm 3 mps 731 mmHg 64%
    09:00 +35°C° 0 mm 3 mps 731 mmHg 57%
    10:00 +36°C° 0 mm 3 mps 731 mmHg 51%
    11:00 +38°C° 0 mm 3 mps 731 mmHg 44%
    12:00 +40°C° 0 mm 3 mps 731 mmHg 38%
    13:00 +40°C° 0 mm 2 mps 730 mmHg 37%
    14:00 +40°C° 0 mm 2 mps 729 mmHg 36%
    15:00 +40°C° 0 mm 1 mps 728 mmHg 36%
    16:00 +39°C° 0 mm 1 mps 728 mmHg 37%
    17:00 +37°C° 0 mm 1 mps 728 mmHg 39%
    18:00 +35°C° 0 mm 0 mps 728 mmHg 41%
    19:00 +36°C° 0.2 mm 1 mps 729 mmHg 44%
    20:00 +35°C° 0.2 mm 1 mps 729 mmHg 47%
    21:00 +35°C° 0.2 mm 1 mps 730 mmHg 50%
    22:00 +35°C° 0.1 mm 2 mps 730 mmHg 55%
    23:00 +34°C° 0.1 mm 3 mps 730 mmHg 59%

    24 April, Wednesday

    Time Temperature Precipitation Wind Pressure Humidity
    00:00 +33°C° 0.1 mm 3 mps 729 mmHg 63%
    01:00 +31°C° 0.3 mm 3 mps 730 mmHg 66%
    02:00 +31°C° 0.3 mm 2 mps 730 mmHg 69%
    03:00 +30°C° 0.3 mm 2 mps 730 mmHg 72%
    04:00 +30°C° 2.6 mm 2 mps 730 mmHg 72%
    05:00 +30°C° 2.6 mm 3 mps 730 mmHg 73%
    06:00 +29°C° 2.6 mm 3 mps 731 mmHg 73%
    07:00 +30°C° 0 mm 3 mps 731 mmHg 70%
    08:00 +31°C° 0 mm 3 mps 732 mmHg 67%
    09:00 +32°C° 0 mm 2 mps 732 mmHg 64%
    10:00 +35°C° 0 mm 2 mps 732 mmHg 56%
    11:00 +36°C° 0 mm 1 mps 731 mmHg 48%
    12:00 +40°C° 0 mm 1 mps 731 mmHg 40%
    13:00 +40°C° 0 mm 1 mps 730 mmHg 38%
    14:00 +41°C° 0 mm 1 mps 729 mmHg 35%
    15:00 +42°C° 0 mm 1 mps 729 mmHg 33%
    16:00 +40°C° 0 mm 1 mps 729 mmHg 36%
    17:00 +39°C° 0 mm 1 mps 729 mmHg 38%
    18:00 +37°C° 0 mm 1 mps 729 mmHg 41%
    19:00 +37°C° 0 mm 2 mps 730 mmHg 44%
    20:00 +37°C° 0 mm 2 mps 731 mmHg 47%
    21:00 +36°C° 0 mm 2 mps 731 mmHg 50%
    22:00 +34°C° 1.6 mm 2 mps 731 mmHg 57%
    23:00 +33°C° 1.6 mm 3 mps 731 mmHg 65%

    25 April, Thursday

    Time Temperature Precipitation Wind Pressure Humidity
    00:00 +30°C° 1.6 mm 3 mps 731 mmHg 73%
    01:00 +30°C° 0.1 mm 3 mps 730 mmHg 74%
    02:00 +30°C° 0.1 mm 3 mps 730 mmHg 76%
    03:00 +29°C° 0.1 mm 2 mps 730 mmHg 78%
    04:00 +29°C° 0 mm 2 mps 730 mmHg 79%
    05:00 +29°C° 0 mm 3 mps 731 mmHg 81%
    06:00 +29°C° 0 mm 3 mps 732 mmHg 83%
    07:00 +29°C° 0.8 mm 3 mps 732 mmHg 81%
    08:00 +30°C° 0.8 mm 3 mps 733 mmHg 78%
    09:00 +30°C° 0.8 mm 3 mps 733 mmHg 76%
    10:00 +31°C° 1.3 mm 3 mps 733 mmHg 72%
    11:00 +33°C° 1.3 mm 3 mps 732 mmHg 69%
    12:00 +33°C° 1.3 mm 3 mps 732 mmHg 65%
    13:00 +34°C° 0 mm 3 mps 731 mmHg 63%
    14:00 +34°C° 0 mm 3 mps 730 mmHg 61%
    15:00 +35°C° 0 mm 2 mps 729 mmHg 58%
    16:00 +34°C° 0 mm 2 mps 730 mmHg 60%
    17:00 +33°C° 0 mm 1 mps 730 mmHg 61%
    18:00 +32°C° 0 mm 1 mps 730 mmHg 63%
    19:00 +32°C° 0 mm 1 mps 730 mmHg 65%
    20:00 +31°C° 0 mm 1 mps 731 mmHg 66%
    21:00 +31°C° 0 mm 2 mps 731 mmHg 68%
    22:00 +31°C° 0 mm 2 mps 731 mmHg 69%
    23:00 +30°C° 0 mm 2 mps 730 mmHg 70%

    26 April, Friday

    Time Temperature Precipitation Wind Pressure Humidity
    00:00 +30°C° 0 mm 2 mps 730 mmHg 71%
    01:00 +30°C° 0 mm 2 mps 730 mmHg 72%
    02:00 +29°C° 0 mm 1 mps 729 mmHg 73%
    03:00 +29°C° 0 mm 1 mps 729 mmHg 73%
    04:00 +29°C° 0 mm 1 mps 729 mmHg 75%
    05:00 +28°C° 0 mm 2 mps 730 mmHg 76%
    06:00 +28°C° 0 mm 2 mps 730 mmHg 77%
    07:00 +30°C° 0 mm 2 mps 731 mmHg 72%
    08:00 +33°C° 0 mm 3 mps 731 mmHg 67%
    09:00 +34°C° 0 mm 3 mps 731 mmHg 62%
    10:00 +36°C° 0 mm 3 mps 731 mmHg 55%
    11:00 +38°C° 0 mm 2 mps 731 mmHg 48%
    12:00 +40°C° 0 mm 2 mps 730 mmHg 41%
    13:00 +40°C° 0 mm 2 mps 730 mmHg 41%
    14:00 +39°C° 0 mm 2 mps 729 mmHg 40%
    15:00 +39°C° 0 mm 2 mps 728 mmHg 39%
    16:00 +37°C° 0 mm 1 mps 728 mmHg 42%
    17:00 +36°C° 0 mm 1 mps 728 mmHg 46%
    18:00 +36°C° 0 mm 1 mps 729 mmHg 49%
    19:00 +36°C° 0 mm 2 mps 729 mmHg 52%
    20:00 +35°C° 0 mm 2 mps 729 mmHg 56%
    21:00 +34°C° 0 mm 3 mps 730 mmHg 60%
    22:00 +33°C° 0 mm 3 mps 730 mmHg 62%
    23:00 +33°C° 0 mm 3 mps 730 mmHg 64%
    Show more